QAK4889 MMTJ-MMSD

Flight info

Callsign QAK4889
Flight time 1h 37m
Altitude 37000
Route SIDGA1A SIDGA UT6 IMUSU UT25 LTO/N0369F170 V4 ENEKO ENEKO1A
Aircraft A320/M-SDE3FGHIRWY/LB1

Departure

Time 2026-04-23 16:32
Airport General Abelardo L. Rodriguez International Airport (MMTJ)

Arrival

Time 2026-04-23 18:10
Airport Los Cabos International Airport (MMSD)
Time Latitude Longitude Altitude Speed Heading
2026-04-23 16:18 32.54479 -116.97659 470 ft 0 kts 304°
2026-04-23 16:22 32.54478 -116.97658 470 ft 2 kts 304°
2026-04-23 16:22 32.54469 -116.97642 470 ft 2 kts 304°
2026-04-23 16:23 32.54461 -116.97622 469 ft 3 kts 268°
2026-04-23 16:23 32.54462 -116.97608 469 ft 3 kts 244°
2026-04-23 16:23 32.54473 -116.97591 468 ft 3 kts 218°
2026-04-23 16:23 32.54487 -116.97582 470 ft 0 kts 189°
2026-04-23 16:26 32.54477 -116.97584 467 ft 5 kts 189°
2026-04-23 16:26 32.54433 -116.97592 470 ft 6 kts 188°
2026-04-23 16:26 32.54404 -116.97617 469 ft 5 kts 246°
2026-04-23 16:27 32.54405 -116.97652 470 ft 5 kts 277°
2026-04-23 16:27 32.54414 -116.97708 467 ft 9 kts 280°
2026-04-23 16:27 32.54413 -116.97777 468 ft 7 kts 236°
2026-04-23 16:27 32.54382 -116.97817 467 ft 6 kts 252°
2026-04-23 16:28 32.54389 -116.97890 469 ft 12 kts 279°
2026-04-23 16:28 32.54403 -116.97994 471 ft 12 kts 279°
2026-04-23 16:28 32.54416 -116.98088 468 ft 11 kts 279°
2026-04-23 16:28 32.54427 -116.98168 471 ft 9 kts 279°
2026-04-23 16:29 32.54436 -116.98237 472 ft 9 kts 279°
2026-04-23 16:29 32.54447 -116.98315 472 ft 11 kts 279°
2026-04-23 16:29 32.54459 -116.98402 470 ft 10 kts 279°
2026-04-23 16:29 32.54460 -116.98474 473 ft 8 kts 255°
2026-04-23 16:30 32.54435 -116.98515 471 ft 4 kts 219°
2026-04-23 16:30 32.54409 -116.98529 476 ft 6 kts 195°
2026-04-23 16:30 32.54363 -116.98535 476 ft 6 kts 185°
2026-04-23 16:30 32.54352 -116.98536 477 ft 0 kts 185°
2026-04-23 16:31 32.54320 -116.98538 480 ft 6 kts 168°
2026-04-23 16:31 32.54306 -116.98508 480 ft 0 kts 101°
2026-04-23 16:31 32.54284 -116.98341 472 ft 57 kts 99°
2026-04-23 16:32 32.54186 -116.97602 468 ft 121 kts 98°
2026-04-23 16:32 32.54026 -116.96412 533 ft 162 kts 99°
2026-04-23 16:32 32.53851 -116.95133 1216 ft 155 kts 99°
2026-04-23 16:32 32.53683 -116.93854 1780 ft 161 kts 98°
2026-04-23 16:33 32.53510 -116.92534 2358 ft 166 kts 97°
2026-04-23 16:33 32.53268 -116.91091 2681 ft 191 kts 111°
2026-04-23 16:33 32.52629 -116.89610 2983 ft 214 kts 118°
2026-04-23 16:33 32.51828 -116.87985 3328 ft 239 kts 120°
2026-04-23 16:34 32.50936 -116.86207 3741 ft 263 kts 120°
2026-04-23 16:34 32.49985 -116.84294 4446 ft 273 kts 119°
2026-04-23 16:34 32.49029 -116.82346 5303 ft 279 kts 119°
2026-04-23 16:34 32.48044 -116.80315 5828 ft 287 kts 119°
2026-04-23 16:35 32.47049 -116.78252 5976 ft 288 kts 119°
2026-04-23 16:35 32.45849 -116.76372 6013 ft 289 kts 138°
2026-04-23 16:35 32.44255 -116.74878 6686 ft 292 kts 142°
2026-04-23 16:35 32.42668 -116.73402 7555 ft 295 kts 143°
2026-04-23 16:36 32.41054 -116.71879 8397 ft 299 kts 143°
2026-04-23 16:36 32.39419 -116.70328 9235 ft 302 kts 143°
2026-04-23 16:36 32.37764 -116.68758 10064 ft 306 kts 144°
2026-04-23 16:36 32.36059 -116.67146 10416 ft 326 kts 144°
2026-04-23 16:37 32.34215 -116.65409 10628 ft 349 kts 144°
2026-04-23 16:37 32.32277 -116.63584 11124 ft 360 kts 144°
2026-04-23 16:37 32.30331 -116.61752 11774 ft 364 kts 144°
2026-04-23 16:37 32.28338 -116.59878 12430 ft 368 kts 144°
2026-04-23 16:38 32.26315 -116.57976 13141 ft 372 kts 144°
2026-04-23 16:38 32.24270 -116.56054 13839 ft 376 kts 144°
2026-04-23 16:38 32.22215 -116.54121 14439 ft 380 kts 144°
2026-04-23 16:38 32.20118 -116.52165 15034 ft 384 kts 147°
2026-04-23 16:39 32.17897 -116.50421 15634 ft 385 kts 151°
2026-04-23 16:39 32.15660 -116.48722 16233 ft 389 kts 151°
2026-04-23 16:39 32.13368 -116.46989 16846 ft 392 kts 151°
2026-04-23 16:39 32.11057 -116.45243 17450 ft 396 kts 152°
2026-04-23 16:40 32.08726 -116.43479 18070 ft 399 kts 152°
2026-04-23 16:40 32.06372 -116.41696 18638 ft 403 kts 152°
2026-04-23 16:40 32.04031 -116.39923 19155 ft 406 kts 152°
2026-04-23 16:40 32.01644 -116.38116 19679 ft 408 kts 152°
2026-04-23 16:41 31.99250 -116.36306 20227 ft 411 kts 152°
2026-04-23 16:41 31.96827 -116.34474 20722 ft 414 kts 152°
2026-04-23 16:41 31.94391 -116.32635 21256 ft 417 kts 152°
2026-04-23 16:41 31.91965 -116.30808 21772 ft 419 kts 152°
2026-04-23 16:42 31.89500 -116.28953 22294 ft 422 kts 152°
2026-04-23 16:42 31.87011 -116.27082 22773 ft 425 kts 152°
2026-04-23 16:42 31.84515 -116.25207 23266 ft 427 kts 153°
2026-04-23 16:42 31.81992 -116.23317 23722 ft 430 kts 153°
2026-04-23 16:43 31.79486 -116.21439 24109 ft 433 kts 153°
2026-04-23 16:43 31.76937 -116.19525 24484 ft 435 kts 153°
2026-04-23 16:43 31.74368 -116.17587 24847 ft 439 kts 152°
2026-04-23 16:43 31.71838 -116.15537 25193 ft 443 kts 150°
2026-04-23 16:44 31.69353 -116.13360 25527 ft 448 kts 148°
2026-04-23 16:44 31.66873 -116.11088 25877 ft 451 kts 147°
2026-04-23 16:44 31.64426 -116.08813 26207 ft 454 kts 148°
2026-04-23 16:44 31.61932 -116.06511 26529 ft 457 kts 148°
2026-04-23 16:45 31.59414 -116.04220 26852 ft 460 kts 149°
2026-04-23 16:45 31.56860 -116.01932 27156 ft 462 kts 149°
2026-04-23 16:45 31.54315 -115.99678 27459 ft 465 kts 149°
2026-04-23 16:45 31.51710 -115.97379 27750 ft 468 kts 149°
2026-04-23 16:46 31.49100 -115.95074 28036 ft 471 kts 150°
2026-04-23 16:46 31.46471 -115.92748 28330 ft 474 kts 150°
2026-04-23 16:46 31.43851 -115.90433 28597 ft 477 kts 150°
2026-04-23 16:46 31.41189 -115.88076 28875 ft 480 kts 150°
2026-04-23 16:47 31.38511 -115.85707 29125 ft 484 kts 150°
2026-04-23 16:47 31.35823 -115.83330 29362 ft 486 kts 150°
2026-04-23 16:47 31.33109 -115.80934 29595 ft 489 kts 150°
2026-04-23 16:47 31.30381 -115.78530 29829 ft 492 kts 150°
2026-04-23 16:48 31.27630 -115.76110 30053 ft 495 kts 150°
2026-04-23 16:48 31.24909 -115.73716 30249 ft 498 kts 150°
2026-04-23 16:48 31.22123 -115.71269 30429 ft 500 kts 150°
2026-04-23 16:48 31.19330 -115.68814 30599 ft 503 kts 150°
2026-04-23 16:49 31.17476 -115.67181 30708 ft 504 kts 150°
2026-04-23 16:49 31.13723 -115.63874 31051 ft 505 kts 150°
2026-04-23 16:49 31.10950 -115.61437 31320 ft 505 kts 151°
2026-04-23 16:49 31.08138 -115.58973 31594 ft 505 kts 151°
2026-04-23 16:50 31.05325 -115.56508 31842 ft 506 kts 151°
2026-04-23 16:50 31.02505 -115.54040 32061 ft 507 kts 151°
2026-04-23 16:50 30.99681 -115.51567 32307 ft 507 kts 151°
2026-04-23 16:50 30.96859 -115.49096 32580 ft 507 kts 151°
2026-04-23 16:51 30.94038 -115.46630 32826 ft 507 kts 152°
2026-04-23 16:51 30.91249 -115.44193 33075 ft 507 kts 152°
2026-04-23 16:51 30.88431 -115.41736 33322 ft 507 kts 152°
2026-04-23 16:51 30.85594 -115.39268 33577 ft 508 kts 152°
2026-04-23 16:52 30.82763 -115.36804 33841 ft 508 kts 152°
2026-04-23 16:52 30.79925 -115.34327 34097 ft 508 kts 151°
2026-04-23 16:52 30.77147 -115.31838 34337 ft 509 kts 150°
2026-04-23 16:52 30.74358 -115.29264 34598 ft 510 kts 149°
2026-04-23 16:53 30.71603 -115.26677 34840 ft 509 kts 149°
2026-04-23 16:53 30.68857 -115.24087 35073 ft 508 kts 148°
2026-04-23 16:53 30.66102 -115.21498 35323 ft 507 kts 149°
2026-04-23 16:53 30.63347 -115.18931 35545 ft 506 kts 149°
2026-04-23 16:54 30.60629 -115.16421 35754 ft 505 kts 150°
2026-04-23 16:54 30.57866 -115.13886 35956 ft 505 kts 150°
2026-04-23 16:54 30.55100 -115.11359 36117 ft 504 kts 150°
2026-04-23 16:54 30.52337 -115.08834 36282 ft 504 kts 150°
2026-04-23 16:55 30.49615 -115.06340 36454 ft 504 kts 150°
2026-04-23 16:55 30.46862 -115.03815 36633 ft 503 kts 150°
2026-04-23 16:55 30.44109 -115.01287 36848 ft 503 kts 150°
2026-04-23 16:55 30.41366 -114.98767 37002 ft 503 kts 150°
2026-04-23 16:56 30.35908 -114.93776 37027 ft 503 kts 150°
2026-04-23 16:56 30.30392 -114.88736 37027 ft 503 kts 150°
2026-04-23 16:57 30.24929 -114.83746 37026 ft 503 kts 150°
2026-04-23 16:57 30.19422 -114.78734 37026 ft 503 kts 149°
2026-04-23 16:58 30.13916 -114.73724 37017 ft 503 kts 149°
2026-04-23 16:58 30.08453 -114.68752 37006 ft 503 kts 149°
2026-04-23 16:59 30.02942 -114.63747 37004 ft 503 kts 149°
2026-04-23 16:59 29.97457 -114.58773 37006 ft 503 kts 149°
2026-04-23 17:00 29.91937 -114.53780 37012 ft 504 kts 149°
2026-04-23 17:00 29.86444 -114.48824 37007 ft 504 kts 149°
2026-04-23 17:01 29.80907 -114.43833 37011 ft 504 kts 149°
2026-04-23 17:01 29.75384 -114.38852 37005 ft 504 kts 149°
2026-04-23 17:02 29.69888 -114.33911 37005 ft 504 kts 149°
2026-04-23 17:02 29.64350 -114.28941 37013 ft 503 kts 149°
2026-04-23 17:03 29.58852 -114.24012 37017 ft 504 kts 149°
2026-04-23 17:03 29.53313 -114.19055 37025 ft 504 kts 149°
2026-04-23 17:04 29.47772 -114.14091 37027 ft 504 kts 149°
2026-04-23 17:04 29.42261 -114.09158 37034 ft 504 kts 149°
2026-04-23 17:05 29.36715 -114.04207 37033 ft 503 kts 149°
2026-04-23 17:05 29.31207 -113.99309 37049 ft 504 kts 149°
2026-04-23 17:06 29.25640 -113.94361 37048 ft 504 kts 149°
2026-04-23 17:06 29.20119 -113.89469 37037 ft 504 kts 149°
2026-04-23 17:07 29.14555 -113.84536 37049 ft 505 kts 149°
2026-04-23 17:07 29.09028 -113.79633 37053 ft 504 kts 149°
2026-04-23 17:08 29.03474 -113.74716 37052 ft 504 kts 150°
2026-04-23 17:08 28.97906 -113.69809 37054 ft 504 kts 150°
2026-04-23 17:09 28.92404 -113.64948 37052 ft 503 kts 149°
2026-04-23 17:09 28.86844 -113.60038 37051 ft 503 kts 150°
2026-04-23 17:10 28.81340 -113.55200 37040 ft 502 kts 150°
2026-04-23 17:10 28.75866 -113.50394 37024 ft 486 kts 153°
2026-04-23 17:11 28.70562 -113.45735 37022 ft 482 kts 153°
2026-04-23 17:11 28.65235 -113.41077 37023 ft 481 kts 153°
2026-04-23 17:12 28.59920 -113.36434 37021 ft 481 kts 153°
2026-04-23 17:12 28.54631 -113.31820 37014 ft 481 kts 153°
2026-04-23 17:13 28.49291 -113.27172 37019 ft 482 kts 152°
2026-04-23 17:13 28.44860 -113.23311 37013 ft 482 kts 152°
2026-04-23 17:14 28.39564 -113.18696 37018 ft 482 kts 152°
2026-04-23 17:14 28.34223 -113.14047 37036 ft 482 kts 152°
2026-04-23 17:15 28.28895 -113.09419 37039 ft 481 kts 152°
2026-04-23 17:15 28.23592 -113.04835 37039 ft 481 kts 152°
2026-04-23 17:16 28.18259 -113.00211 37039 ft 481 kts 152°
2026-04-23 17:16 28.12961 -112.95613 37037 ft 481 kts 152°
2026-04-23 17:17 28.07628 -112.91004 37037 ft 481 kts 152°
2026-04-23 17:17 28.02320 -112.86433 37040 ft 481 kts 152°
2026-04-23 17:18 27.94310 -112.79541 37029 ft 481 kts 152°
2026-04-23 17:19 27.89001 -112.74979 37028 ft 481 kts 152°
2026-04-23 17:19 27.83651 -112.70395 37027 ft 482 kts 152°
2026-04-23 17:20 27.78332 -112.65833 37029 ft 482 kts 152°
2026-04-23 17:21 27.67659 -112.56688 37028 ft 482 kts 152°
2026-04-23 17:21 27.59627 -112.49824 37022 ft 482 kts 151°
2026-04-23 17:22 27.51625 -112.42990 37012 ft 482 kts 152°
2026-04-23 17:23 27.43605 -112.36191 37012 ft 482 kts 151°
2026-04-23 17:24 27.35559 -112.29349 37008 ft 482 kts 151°
2026-04-23 17:24 27.27268 -112.23167 37005 ft 475 kts 157°
2026-04-23 17:25 27.18847 -112.17361 37001 ft 475 kts 157°
2026-04-23 17:26 27.07607 -112.09614 36993 ft 475 kts 157°
2026-04-23 17:27 26.99145 -112.03779 36993 ft 475 kts 156°
2026-04-23 17:27 26.93508 -111.99900 36990 ft 474 kts 157°
2026-04-23 17:28 26.87909 -111.96062 36993 ft 475 kts 157°
2026-04-23 17:28 26.82259 -111.92198 36996 ft 475 kts 156°
2026-04-23 17:29 26.76622 -111.88346 36997 ft 475 kts 156°
2026-04-23 17:30 26.68191 -111.82573 37000 ft 475 kts 156°
2026-04-23 17:30 26.59727 -111.76771 36999 ft 474 kts 156°
2026-04-23 17:31 26.54108 -111.72937 36996 ft 474 kts 156°
2026-04-23 17:31 26.48467 -111.69106 36997 ft 474 kts 156°
2026-04-23 17:32 26.42841 -111.65281 37001 ft 475 kts 156°
2026-04-23 17:32 26.37201 -111.61441 37007 ft 475 kts 156°
2026-04-23 17:33 26.31561 -111.57608 37017 ft 475 kts 156°
2026-04-23 17:33 26.25950 -111.53797 37006 ft 474 kts 156°
2026-04-23 17:34 26.20302 -111.49970 37013 ft 474 kts 156°
2026-04-23 17:35 26.11853 -111.44263 37012 ft 474 kts 156°
2026-04-23 17:35 26.03367 -111.38533 37001 ft 475 kts 156°
2026-04-23 17:36 25.97856 -111.34488 37003 ft 484 kts 146°
2026-04-23 17:36 25.93084 -111.29095 37009 ft 490 kts 139°
2026-04-23 17:37 25.88396 -111.23576 37010 ft 490 kts 139°
2026-04-23 17:38 25.81373 -111.15344 37012 ft 490 kts 139°
2026-04-23 17:38 25.76675 -111.09841 37011 ft 490 kts 139°
2026-04-23 17:39 25.71998 -111.04371 37006 ft 490 kts 139°
2026-04-23 17:39 25.67303 -110.98877 37002 ft 490 kts 139°
2026-04-23 17:40 25.62638 -110.93425 37000 ft 490 kts 139°
2026-04-23 17:40 25.57944 -110.87949 36999 ft 489 kts 139°
2026-04-23 17:41 25.53240 -110.82480 36993 ft 489 kts 139°
2026-04-23 17:41 25.46212 -110.74312 36993 ft 489 kts 139°
2026-04-23 17:42 25.39195 -110.66166 36996 ft 489 kts 139°
2026-04-23 17:43 25.34495 -110.60708 36999 ft 489 kts 139°
2026-04-23 17:43 25.29811 -110.55287 36999 ft 489 kts 139°
2026-04-23 17:44 25.25090 -110.49841 36999 ft 489 kts 139°
2026-04-23 17:44 25.18032 -110.41700 36994 ft 489 kts 139°
2026-04-23 17:45 25.10997 -110.33566 36996 ft 489 kts 139°
2026-04-23 17:46 25.03961 -110.25471 37001 ft 489 kts 139°
2026-04-23 17:46 24.99258 -110.20075 37002 ft 489 kts 138°
2026-04-23 17:47 24.94548 -110.14667 37003 ft 488 kts 138°
2026-04-23 17:48 24.87468 -110.06547 37004 ft 488 kts 138°
2026-04-23 17:48 24.82786 -110.01190 37006 ft 488 kts 138°
2026-04-23 17:48 24.80425 -109.98495 36312 ft 493 kts 138°
2026-04-23 17:49 24.78018 -109.95752 35303 ft 499 kts 138°
2026-04-23 17:49 24.75598 -109.92989 34351 ft 503 kts 138°
2026-04-23 17:49 24.73183 -109.90228 33307 ft 507 kts 138°
2026-04-23 17:49 24.70729 -109.87423 32239 ft 509 kts 138°
2026-04-23 17:50 24.68282 -109.84629 31628 ft 502 kts 138°
2026-04-23 17:50 24.63468 -109.79142 30247 ft 494 kts 137°
2026-04-23 17:50 24.61088 -109.76433 29507 ft 491 kts 137°
2026-04-23 17:51 24.58721 -109.73741 28862 ft 484 kts 137°
2026-04-23 17:51 24.56417 -109.71123 28220 ft 479 kts 137°
2026-04-23 17:51 24.51813 -109.65892 26927 ft 471 kts 137°
2026-04-23 17:52 24.49543 -109.63317 26297 ft 467 kts 137°
2026-04-23 17:52 24.45074 -109.58250 25098 ft 460 kts 136°
2026-04-23 17:52 24.42853 -109.55737 24517 ft 457 kts 136°
2026-04-23 17:53 24.38468 -109.50776 23363 ft 441 kts 136°
2026-04-23 17:53 24.36372 -109.48398 22832 ft 424 kts 137°
2026-04-23 17:53 24.34169 -109.46363 22341 ft 404 kts 150°
2026-04-23 17:54 24.31754 -109.44985 21905 ft 391 kts 162°
2026-04-23 17:54 24.29158 -109.44206 21451 ft 383 kts 175°
2026-04-23 17:54 24.23965 -109.44452 20548 ft 369 kts 198°
2026-04-23 17:55 24.18972 -109.45744 19635 ft 367 kts 197°
2026-04-23 17:55 24.16484 -109.46378 19173 ft 367 kts 197°
2026-04-23 17:55 24.14021 -109.47006 18710 ft 367 kts 197°
2026-04-23 17:56 24.11521 -109.47642 18231 ft 368 kts 197°
2026-04-23 17:56 24.06521 -109.48911 17210 ft 367 kts 197°
2026-04-23 17:56 24.04034 -109.49542 16743 ft 366 kts 196°
2026-04-23 17:57 24.01559 -109.50170 16279 ft 364 kts 196°
2026-04-23 17:57 23.99115 -109.50788 15822 ft 363 kts 196°
2026-04-23 17:57 23.94200 -109.52036 14900 ft 360 kts 196°
2026-04-23 17:58 23.91769 -109.52655 14450 ft 359 kts 196°
2026-04-23 17:58 23.89378 -109.53420 13992 ft 356 kts 201°
2026-04-23 17:58 23.87069 -109.54283 13592 ft 352 kts 201°
2026-04-23 17:58 23.84779 -109.55130 13335 ft 344 kts 201°
2026-04-23 17:59 23.82511 -109.55964 12852 ft 343 kts 201°
2026-04-23 17:59 23.80246 -109.56799 12295 ft 343 kts 201°
2026-04-23 17:59 23.77984 -109.57634 11732 ft 343 kts 201°
2026-04-23 17:59 23.75743 -109.58462 11171 ft 343 kts 201°
2026-04-23 18:00 23.73478 -109.59298 10604 ft 343 kts 201°
2026-04-23 18:00 23.71222 -109.60127 10230 ft 337 kts 201°
2026-04-23 18:00 23.69049 -109.60925 10109 ft 322 kts 201°
2026-04-23 18:00 23.66960 -109.61693 9990 ft 309 kts 201°
2026-04-23 18:01 23.64955 -109.62431 9883 ft 297 kts 201°
2026-04-23 18:01 23.63048 -109.63134 9654 ft 289 kts 201°
2026-04-23 18:01 23.61152 -109.63833 9195 ft 286 kts 201°
2026-04-23 18:01 23.59278 -109.64526 8733 ft 283 kts 201°
2026-04-23 18:02 23.58042 -109.64983 8480 ft 282 kts 201°
2026-04-23 18:02 23.55583 -109.65892 7996 ft 280 kts 201°
2026-04-23 18:02 23.53741 -109.66572 7630 ft 278 kts 200°
2026-04-23 18:02 23.51903 -109.67249 7267 ft 277 kts 200°
2026-04-23 18:03 23.50079 -109.67920 6910 ft 276 kts 200°
2026-04-23 18:03 23.48869 -109.68363 6674 ft 275 kts 200°
2026-04-23 18:03 23.46470 -109.69242 6190 ft 273 kts 200°
2026-04-23 18:03 23.45286 -109.69676 5944 ft 271 kts 199°
2026-04-23 18:04 23.43526 -109.70321 5604 ft 263 kts 199°
2026-04-23 18:04 23.41834 -109.70941 5272 ft 250 kts 200°
2026-04-23 18:04 23.39702 -109.71723 4859 ft 236 kts 199°
2026-04-23 18:04 23.38661 -109.72107 4650 ft 230 kts 199°
2026-04-23 18:05 23.37158 -109.72659 4362 ft 231 kts 199°
2026-04-23 18:05 23.35645 -109.73216 4046 ft 226 kts 199°
2026-04-23 18:05 23.34185 -109.73752 3762 ft 216 kts 199°
2026-04-23 18:05 23.32748 -109.74060 3527 ft 207 kts 178°
2026-04-23 18:06 23.31331 -109.73912 3240 ft 203 kts 174°
2026-04-23 18:06 23.29939 -109.73753 2957 ft 199 kts 174°
2026-04-23 18:06 23.28578 -109.73598 2706 ft 195 kts 174°
2026-04-23 18:06 23.27276 -109.73451 2453 ft 184 kts 174°
2026-04-23 18:07 23.26078 -109.73314 2247 ft 164 kts 174°
2026-04-23 18:07 23.24988 -109.73189 2033 ft 151 kts 174°
2026-04-23 18:07 23.23960 -109.73071 1848 ft 146 kts 174°
2026-04-23 18:07 23.22961 -109.72957 1656 ft 143 kts 174°
2026-04-23 18:08 23.21977 -109.72844 1475 ft 141 kts 174°
2026-04-23 18:08 23.21002 -109.72731 1287 ft 139 kts 173°
2026-04-23 18:08 23.20052 -109.72622 1098 ft 137 kts 172°
2026-04-23 18:08 23.19097 -109.72514 912 ft 136 kts 172°
2026-04-23 18:09 23.18162 -109.72415 747 ft 134 kts 173°
2026-04-23 18:09 23.17255 -109.72299 607 ft 133 kts 171°
2026-04-23 18:09 23.16344 -109.72207 397 ft 129 kts 171°
2026-04-23 18:09 23.15570 -109.72115 387 ft 89 kts 174°
2026-04-23 18:10 23.15130 -109.72064 388 ft 37 kts 172°
2026-04-23 18:10 23.14996 -109.72013 388 ft 18 kts 146°
2026-04-23 18:10 23.14925 -109.71958 386 ft 6 kts 143°
2026-04-23 18:10 23.14902 -109.71939 386 ft 3 kts 143°
2026-04-23 18:11 23.14897 -109.71935 386 ft 0 kts 143°
2026-04-23 18:11 23.14869 -109.71914 386 ft 11 kts 144°
2026-04-23 18:11 23.14818 -109.71853 386 ft 10 kts 88°
2026-04-23 18:11 23.14874 -109.71832 386 ft 9 kts 353°
2026-04-23 18:12 23.14933 -109.71839 386 ft 9 kts 354°
2026-04-23 18:12 23.15040 -109.71851 386 ft 20 kts 354°
2026-04-23 18:12 23.15176 -109.71867 386 ft 19 kts 354°
2026-04-23 18:12 23.15302 -109.71881 387 ft 17 kts 354°
2026-04-23 18:13 23.15418 -109.71894 387 ft 16 kts 353°
2026-04-23 18:13 23.15523 -109.71907 387 ft 15 kts 354°
2026-04-23 18:13 23.15622 -109.71918 387 ft 14 kts 354°
2026-04-23 18:13 23.15710 -109.71915 387 ft 12 kts 40°
2026-04-23 18:14 23.15715 -109.71832 387 ft 11 kts 88°
2026-04-23 18:14 23.15721 -109.71773 387 ft 4 kts 84°
2026-04-23 18:14 23.15721 -109.71772 387 ft 0 kts 84°